OAW22J EGNT-LSGG

Flight info

Callsign OAW22J
Flight time 1h 51m
Altitude 37000
Route GIRLI P18 GASKO P16 RIBEL UP16 CROFT UL612 HON DCT XAMAB UL612 VEULE/N0453F310 DCT PEKIM DCT PILUL/N0436F270 DCT PIMUP DCT PIXIS DCT PIBAT/N0408F230 DCT LUSAR
Aircraft E190/M-SDE3GILORVW/S

Departure

Time 2026-05-07 19:29
Airport Newcastle International Airport (EGNT)

Arrival

Time 2026-05-07 21:20
Airport Geneva International Airport (LSGG)
Time Latitude Longitude Altitude Speed Heading
2026-05-07 18:55 55.03661 -1.70780 266 ft 0 kts
2026-05-07 19:15 55.03656 -1.70781 266 ft 0 kts
2026-05-07 19:16 55.03644 -1.70782 266 ft 3 kts
2026-05-07 19:16 55.03622 -1.70788 266 ft 4 kts 33°
2026-05-07 19:16 55.03605 -1.70819 266 ft 4 kts 52°
2026-05-07 19:17 55.03590 -1.70842 266 ft 2 kts 11°
2026-05-07 19:17 55.03572 -1.70847 266 ft 0 kts
2026-05-07 19:20 55.03582 -1.70846 266 ft 0 kts
2026-05-07 19:20 55.03588 -1.70837 266 ft 2 kts 39°
2026-05-07 19:20 55.03597 -1.70801 266 ft 5 kts 76°
2026-05-07 19:21 55.03595 -1.70725 266 ft 9 kts 95°
2026-05-07 19:21 55.03592 -1.70573 266 ft 15 kts 84°
2026-05-07 19:21 55.03648 -1.70445 266 ft 13 kts 16°
2026-05-07 19:21 55.03761 -1.70414 266 ft 13 kts 30°
2026-05-07 19:22 55.03780 -1.70305 265 ft 9 kts 90°
2026-05-07 19:22 55.03775 -1.70175 262 ft 13 kts 92°
2026-05-07 19:22 55.03776 -1.69978 259 ft 19 kts 86°
2026-05-07 19:22 55.03797 -1.69728 257 ft 22 kts 77°
2026-05-07 19:23 55.03847 -1.69461 254 ft 24 kts 66°
2026-05-07 19:23 55.03916 -1.69200 252 ft 25 kts 63°
2026-05-07 19:23 55.04007 -1.68852 249 ft 38 kts 64°
2026-05-07 19:23 55.04100 -1.68506 247 ft 27 kts 64°
2026-05-07 19:24 55.04178 -1.68208 246 ft 24 kts 66°
2026-05-07 19:24 55.04242 -1.67970 246 ft 22 kts 65°
2026-05-07 19:24 55.04306 -1.67726 244 ft 23 kts 66°
2026-05-07 19:24 55.04328 -1.67465 240 ft 21 kts 101°
2026-05-07 19:25 55.04315 -1.67405 240 ft 0 kts 118°
2026-05-07 19:27 55.04313 -1.67399 240 ft 1 kts 121°
2026-05-07 19:27 55.04305 -1.67389 227 ft 3 kts 143°
2026-05-07 19:27 55.04248 -1.67364 240 ft 13 kts 180°
2026-05-07 19:28 55.04196 -1.67456 241 ft 11 kts 245°
2026-05-07 19:28 55.04091 -1.67849 246 ft 72 kts 244°
2026-05-07 19:28 55.03776 -1.69033 252 ft 142 kts 244°
2026-05-07 19:28 55.03308 -1.70813 666 ft 171 kts 244°
2026-05-07 19:29 55.02784 -1.72843 1371 ft 199 kts 242°
2026-05-07 19:29 55.02138 -1.75130 2198 ft 219 kts 240°
2026-05-07 19:29 55.01410 -1.77453 3455 ft 212 kts 233°
2026-05-07 19:29 55.00363 -1.79015 4313 ft 208 kts 203°
2026-05-07 19:30 54.98872 -1.79605 4725 ft 230 kts 186°
2026-05-07 19:30 54.97253 -1.79875 5253 ft 243 kts 189°
2026-05-07 19:30 54.95593 -1.80481 5858 ft 250 kts 197°
2026-05-07 19:30 54.93927 -1.81409 6563 ft 253 kts 200°
2026-05-07 19:31 54.92254 -1.82427 7237 ft 256 kts 200°
2026-05-07 19:31 54.90563 -1.83440 7924 ft 260 kts 200°
2026-05-07 19:31 54.88821 -1.84456 8170 ft 269 kts 200°
2026-05-07 19:31 54.87053 -1.85445 8404 ft 260 kts 199°
2026-05-07 19:32 54.85345 -1.86391 9189 ft 258 kts 200°
2026-05-07 19:32 54.83623 -1.87352 9838 ft 261 kts 200°
2026-05-07 19:32 54.81821 -1.87918 10401 ft 269 kts 182°
2026-05-07 19:32 54.79965 -1.87261 10951 ft 279 kts 161°
2026-05-07 19:33 54.78163 -1.85930 11593 ft 283 kts 160°
2026-05-07 19:33 54.76343 -1.84581 12269 ft 285 kts 164°
2026-05-07 19:33 54.74403 -1.84200 13007 ft 281 kts 189°
2026-05-07 19:33 54.72523 -1.84921 13745 ft 283 kts 195°
2026-05-07 19:34 54.70593 -1.85777 14319 ft 293 kts 195°
2026-05-07 19:34 54.68532 -1.86697 14645 ft 310 kts 195°
2026-05-07 19:34 54.66447 -1.87625 15233 ft 316 kts 195°
2026-05-07 19:34 54.64311 -1.88576 15979 ft 318 kts 195°
2026-05-07 19:35 54.62155 -1.89535 16717 ft 321 kts 195°
2026-05-07 19:35 54.59982 -1.90500 17433 ft 324 kts 195°
2026-05-07 19:35 54.57819 -1.91461 18118 ft 328 kts 195°
2026-05-07 19:35 54.55617 -1.92403 18712 ft 332 kts 192°
2026-05-07 19:36 54.53345 -1.93152 19302 ft 335 kts 193°
2026-05-07 19:36 54.51066 -1.94101 19874 ft 338 kts 196°
2026-05-07 19:36 54.48827 -1.95361 20426 ft 341 kts 200°
2026-05-07 19:36 54.46586 -1.96851 20877 ft 347 kts 202°
2026-05-07 19:37 54.44350 -1.98439 21493 ft 348 kts 203°
2026-05-07 19:37 54.42101 -2.00057 22030 ft 352 kts 203°
2026-05-07 19:37 54.39868 -2.01651 22567 ft 355 kts 202°
2026-05-07 19:37 54.37661 -2.03210 23091 ft 358 kts 202°
2026-05-07 19:38 54.35343 -2.04841 23638 ft 361 kts 202°
2026-05-07 19:38 54.33010 -2.06483 24139 ft 364 kts 202°
2026-05-07 19:38 54.30658 -2.08140 24665 ft 366 kts 202°
2026-05-07 19:38 54.28328 -2.09781 25163 ft 368 kts 202°
2026-05-07 19:39 54.25948 -2.11462 25657 ft 371 kts 202°
2026-05-07 19:39 54.23563 -2.13148 26142 ft 373 kts 202°
2026-05-07 19:39 54.21149 -2.14858 26525 ft 377 kts 203°
2026-05-07 19:39 54.18713 -2.16589 26933 ft 380 kts 203°
2026-05-07 19:40 54.16264 -2.18329 27365 ft 382 kts 203°
2026-05-07 19:40 54.13798 -2.20082 27782 ft 384 kts 203°
2026-05-07 19:40 54.11325 -2.21839 28180 ft 387 kts 202°
2026-05-07 19:40 54.08850 -2.23598 28572 ft 389 kts 202°
2026-05-07 19:41 54.06346 -2.25379 28953 ft 391 kts 202°
2026-05-07 19:41 54.03827 -2.27171 29335 ft 393 kts 202°
2026-05-07 19:41 54.01289 -2.28977 29720 ft 395 kts 202°
2026-05-07 19:41 53.98735 -2.30717 30079 ft 397 kts 201°
2026-05-07 19:42 53.96143 -2.32384 30347 ft 400 kts 201°
2026-05-07 19:42 53.93518 -2.34070 30574 ft 403 kts 201°
2026-05-07 19:42 53.90889 -2.35771 30844 ft 405 kts 201°
2026-05-07 19:42 53.88273 -2.37473 31107 ft 406 kts 201°
2026-05-07 19:43 53.85621 -2.39198 31367 ft 408 kts 201°
2026-05-07 19:43 53.82975 -2.40920 31609 ft 409 kts 201°
2026-05-07 19:43 53.80310 -2.42650 31844 ft 410 kts 201°
2026-05-07 19:43 53.77705 -2.44340 32078 ft 412 kts 201°
2026-05-07 19:44 53.75023 -2.46077 32287 ft 413 kts 201°
2026-05-07 19:44 53.72338 -2.47815 32577 ft 412 kts 201°
2026-05-07 19:44 53.69663 -2.49542 32806 ft 413 kts 202°
2026-05-07 19:44 53.66987 -2.51270 33063 ft 413 kts 202°
2026-05-07 19:45 53.64230 -2.52612 33316 ft 415 kts 188°
2026-05-07 19:45 53.61341 -2.52536 33572 ft 418 kts 171°
2026-05-07 19:45 53.58563 -2.51079 33878 ft 420 kts 161°
2026-05-07 19:45 53.55857 -2.49212 34138 ft 420 kts 159°
2026-05-07 19:46 53.53160 -2.47281 34347 ft 421 kts 159°
2026-05-07 19:46 53.50467 -2.45337 34565 ft 421 kts 159°
2026-05-07 19:46 53.47767 -2.43382 34789 ft 422 kts 159°
2026-05-07 19:46 53.45076 -2.41439 35012 ft 422 kts 159°
2026-05-07 19:47 53.42375 -2.39525 35225 ft 421 kts 160°
2026-05-07 19:47 53.39674 -2.37625 35432 ft 422 kts 160°
2026-05-07 19:47 53.36963 -2.35721 35635 ft 422 kts 160°
2026-05-07 19:47 53.34268 -2.33826 35827 ft 422 kts 160°
2026-05-07 19:48 53.31543 -2.31912 36022 ft 422 kts 160°
2026-05-07 19:48 53.28835 -2.30010 36217 ft 422 kts 160°
2026-05-07 19:48 53.26126 -2.28110 36408 ft 423 kts 160°
2026-05-07 19:48 53.23420 -2.26216 36581 ft 423 kts 160°
2026-05-07 19:49 53.20694 -2.24317 36694 ft 425 kts 160°
2026-05-07 19:49 53.17961 -2.22421 36855 ft 425 kts 160°
2026-05-07 19:49 53.15225 -2.20519 36966 ft 427 kts 160°
2026-05-07 19:49 53.12474 -2.18613 36968 ft 431 kts 160°
2026-05-07 19:50 53.06927 -2.14774 36998 ft 439 kts 160°
2026-05-07 19:50 53.01289 -2.10878 36994 ft 431 kts 160°
2026-05-07 19:51 52.95884 -2.07154 37054 ft 430 kts 160°
2026-05-07 19:51 52.90304 -2.03328 37066 ft 438 kts 160°
2026-05-07 19:52 52.84615 -1.99435 37051 ft 446 kts 160°
2026-05-07 19:52 52.78851 -1.95499 37031 ft 449 kts 160°
2026-05-07 19:53 52.73048 -1.91549 37041 ft 454 kts 160°
2026-05-07 19:53 52.67182 -1.87567 37039 ft 455 kts 160°
2026-05-07 19:54 52.61322 -1.83601 37037 ft 455 kts 160°
2026-05-07 19:54 52.55459 -1.79644 37049 ft 455 kts 160°
2026-05-07 19:55 52.49590 -1.75695 37046 ft 455 kts 160°
2026-05-07 19:55 52.43724 -1.71760 37049 ft 456 kts 160°
2026-05-07 19:56 52.37849 -1.67830 37048 ft 456 kts 160°
2026-05-07 19:56 52.32207 -1.63208 37055 ft 458 kts 153°
2026-05-07 19:57 52.26687 -1.57967 37056 ft 459 kts 152°
2026-05-07 19:57 52.21175 -1.52778 37074 ft 458 kts 153°
2026-05-07 19:58 52.16573 -1.48479 37075 ft 459 kts 153°
2026-05-07 19:58 52.11032 -1.43319 37072 ft 459 kts 153°
2026-05-07 19:59 52.05479 -1.38162 37071 ft 460 kts 153°
2026-05-07 19:59 51.99919 -1.33012 37044 ft 459 kts 153°
2026-05-07 20:00 51.94368 -1.27885 37047 ft 459 kts 153°
2026-05-07 20:00 51.88811 -1.22769 37047 ft 459 kts 153°
2026-05-07 20:01 51.83252 -1.17665 37048 ft 459 kts 153°
2026-05-07 20:01 51.77697 -1.12578 37058 ft 458 kts 153°
2026-05-07 20:02 51.72144 -1.07508 37046 ft 458 kts 153°
2026-05-07 20:02 51.66590 -1.02452 37049 ft 458 kts 153°
2026-05-07 20:03 51.61098 -0.97467 37047 ft 458 kts 153°
2026-05-07 20:03 51.55588 -0.92480 37051 ft 458 kts 153°
2026-05-07 20:04 51.50048 -0.87480 37062 ft 459 kts 153°
2026-05-07 20:04 51.44445 -0.82435 37064 ft 459 kts 153°
2026-05-07 20:05 51.38909 -0.77466 37066 ft 459 kts 153°
2026-05-07 20:05 51.33342 -0.72484 37070 ft 459 kts 153°
2026-05-07 20:06 51.27780 -0.67519 37075 ft 458 kts 153°
2026-05-07 20:06 51.22232 -0.62579 37073 ft 458 kts 153°
2026-05-07 20:07 51.16665 -0.57639 37068 ft 458 kts 153°
2026-05-07 20:07 51.11091 -0.52705 37068 ft 458 kts 154°
2026-05-07 20:08 51.05517 -0.47783 37070 ft 458 kts 154°
2026-05-07 20:08 51.00096 -0.43010 37053 ft 458 kts 154°
2026-05-07 20:09 50.94530 -0.38128 37051 ft 458 kts 154°
2026-05-07 20:10 50.86178 -0.30817 37044 ft 457 kts 154°
2026-05-07 20:10 50.80611 -0.25968 37049 ft 457 kts 154°
2026-05-07 20:11 50.75080 -0.21156 37049 ft 457 kts 154°
2026-05-07 20:11 50.69500 -0.16320 37051 ft 457 kts 154°
2026-05-07 20:12 50.63912 -0.11487 37049 ft 457 kts 154°
2026-05-07 20:12 50.58347 -0.06686 37065 ft 457 kts 154°
2026-05-07 20:13 50.52804 -0.01915 37068 ft 457 kts 154°
2026-05-07 20:13 50.47224 0.02882 37063 ft 457 kts 154°
2026-05-07 20:14 50.41654 0.07651 37057 ft 457 kts 154°
2026-05-07 20:14 50.36060 0.12416 37073 ft 457 kts 154°
2026-05-07 20:15 50.30502 0.17143 37071 ft 457 kts 154°
2026-05-07 20:15 50.24917 0.21893 37059 ft 457 kts 154°
2026-05-07 20:16 50.19364 0.26748 37080 ft 457 kts 150°
2026-05-07 20:16 50.14055 0.32264 37056 ft 459 kts 148°
2026-05-07 20:17 50.08796 0.37793 37056 ft 459 kts 148°
2026-05-07 20:17 50.03497 0.43340 37060 ft 459 kts 149°
2026-05-07 20:18 49.98282 0.48779 37048 ft 455 kts 149°
2026-05-07 20:18 49.93054 0.54218 37058 ft 452 kts 149°
2026-05-07 20:19 49.87810 0.59655 37054 ft 453 kts 149°
2026-05-07 20:19 49.82881 0.65779 37081 ft 457 kts 139°
2026-05-07 20:20 49.78262 0.72569 37041 ft 457 kts 139°
2026-05-07 20:20 49.73635 0.79313 37042 ft 457 kts 139°
2026-05-07 20:21 49.69004 0.86009 37048 ft 457 kts 139°
2026-05-07 20:21 49.64354 0.92707 37056 ft 457 kts 140°
2026-05-07 20:22 49.59694 0.99401 37048 ft 458 kts 140°
2026-05-07 20:22 49.55027 1.06088 37048 ft 458 kts 140°
2026-05-07 20:23 49.50387 1.12718 37050 ft 458 kts 140°
2026-05-07 20:23 49.45702 1.19393 37049 ft 458 kts 140°
2026-05-07 20:24 49.41020 1.26047 37048 ft 458 kts 140°
2026-05-07 20:24 49.36333 1.32691 37048 ft 458 kts 140°
2026-05-07 20:25 49.31644 1.39318 37045 ft 459 kts 140°
2026-05-07 20:25 49.26947 1.45938 37056 ft 459 kts 140°
2026-05-07 20:26 49.22241 1.52553 37046 ft 459 kts 140°
2026-05-07 20:26 49.17563 1.59111 37046 ft 459 kts 140°
2026-05-07 20:27 49.12848 1.65705 37048 ft 459 kts 140°
2026-05-07 20:27 49.08129 1.72285 37050 ft 459 kts 140°
2026-05-07 20:28 49.03413 1.78841 37060 ft 459 kts 141°
2026-05-07 20:28 48.98695 1.85391 37045 ft 460 kts 141°
2026-05-07 20:29 48.93965 1.91935 37043 ft 460 kts 141°
2026-05-07 20:29 48.89221 1.98473 37046 ft 460 kts 141°
2026-05-07 20:30 48.84483 2.04994 37039 ft 460 kts 141°
2026-05-07 20:30 48.79735 2.11508 37046 ft 460 kts 141°
2026-05-07 20:31 48.74985 2.18012 37043 ft 460 kts 141°
2026-05-07 20:31 48.70226 2.24510 37051 ft 461 kts 141°
2026-05-07 20:32 48.65497 2.30952 37051 ft 461 kts 141°
2026-05-07 20:32 48.60726 2.37429 37049 ft 461 kts 141°
2026-05-07 20:33 48.55953 2.43906 37046 ft 461 kts 141°
2026-05-07 20:33 48.51178 2.50346 37041 ft 461 kts 141°
2026-05-07 20:34 48.46394 2.56787 37042 ft 461 kts 141°
2026-05-07 20:34 48.41613 2.63206 37040 ft 461 kts 141°
2026-05-07 20:35 48.36836 2.69643 37036 ft 462 kts 141°
2026-05-07 20:35 48.32079 2.76027 37043 ft 462 kts 142°
2026-05-07 20:36 48.27267 2.82414 37036 ft 462 kts 142°
2026-05-07 20:36 48.22232 2.88464 37035 ft 460 kts 146°
2026-05-07 20:37 48.17225 2.94330 37036 ft 460 kts 145°
2026-05-07 20:37 48.12201 3.00285 37047 ft 460 kts 145°
2026-05-07 20:38 48.06982 3.05748 37061 ft 454 kts 158°
2026-05-07 20:38 48.01203 3.09442 37021 ft 453 kts 161°
2026-05-07 20:39 47.95394 3.13048 37033 ft 453 kts 161°
2026-05-07 20:39 47.89577 3.16705 37038 ft 453 kts 161°
2026-05-07 20:40 47.83768 3.20340 37034 ft 453 kts 161°
2026-05-07 20:40 47.77984 3.23953 37033 ft 453 kts 161°
2026-05-07 20:41 47.72191 3.27577 37032 ft 452 kts 161°
2026-05-07 20:41 47.66396 3.31193 37038 ft 452 kts 161°
2026-05-07 20:42 47.61577 3.34193 37033 ft 452 kts 161°
2026-05-07 20:42 47.54825 3.38388 37035 ft 453 kts 161°
2026-05-07 20:43 47.49956 3.41391 37033 ft 452 kts 161°
2026-05-07 20:43 47.44175 3.44929 37032 ft 452 kts 161°
2026-05-07 20:44 47.38367 3.48480 37023 ft 452 kts 161°
2026-05-07 20:44 47.32551 3.52028 37017 ft 452 kts 161°
2026-05-07 20:45 47.26748 3.55562 37031 ft 451 kts 161°
2026-05-07 20:45 47.20945 3.59086 37027 ft 451 kts 161°
2026-05-07 20:46 47.15142 3.62601 37028 ft 451 kts 161°
2026-05-07 20:46 47.09335 3.66112 37031 ft 451 kts 161°
2026-05-07 20:47 47.03531 3.69611 37024 ft 451 kts 161°
2026-05-07 20:47 46.97732 3.73126 37017 ft 452 kts 158°
2026-05-07 20:47 46.95069 3.75616 37030 ft 460 kts 141°
2026-05-07 20:48 46.93027 3.79255 37055 ft 469 kts 122°
2026-05-07 20:48 46.90539 3.88125 36977 ft 473 kts 113°
2026-05-07 20:49 46.88218 3.97111 36998 ft 473 kts 114°
2026-05-07 20:49 46.85849 4.06091 37008 ft 473 kts 114°
2026-05-07 20:50 46.83478 4.15000 37004 ft 474 kts 114°
2026-05-07 20:50 46.81079 4.23982 37011 ft 474 kts 114°
2026-05-07 20:51 46.79437 4.33345 37027 ft 478 kts 104°
2026-05-07 20:51 46.78084 4.42853 37014 ft 478 kts 104°
2026-05-07 20:52 46.76704 4.52343 37017 ft 479 kts 104°
2026-05-07 20:52 46.75320 4.61742 37009 ft 479 kts 104°
2026-05-07 20:53 46.73942 4.71062 36954 ft 453 kts 104°
2026-05-07 20:53 46.73290 4.75465 36928 ft 434 kts 105°
2026-05-07 20:53 46.72665 4.79665 37014 ft 415 kts 105°
2026-05-07 20:54 46.71440 4.87813 37040 ft 417 kts 105°
2026-05-07 20:54 46.70808 4.91971 36138 ft 436 kts 105°
2026-05-07 20:54 46.70135 4.96384 34683 ft 455 kts 105°
2026-05-07 20:54 46.69437 5.00965 33171 ft 471 kts 105°
2026-05-07 20:55 46.68718 5.05690 31650 ft 485 kts 104°
2026-05-07 20:55 46.68010 5.10372 31200 ft 471 kts 105°
2026-05-07 20:55 46.67306 5.15002 30524 ft 464 kts 105°
2026-05-07 20:55 46.66621 5.19490 29909 ft 456 kts 105°
2026-05-07 20:56 46.65950 5.23952 29349 ft 446 kts 104°
2026-05-07 20:56 46.65299 5.28318 28746 ft 437 kts 104°
2026-05-07 20:56 46.64658 5.32593 28187 ft 429 kts 104°
2026-05-07 20:56 46.64023 5.36808 27643 ft 424 kts 104°
2026-05-07 20:57 46.63388 5.40995 27048 ft 424 kts 104°
2026-05-07 20:57 46.62753 5.45179 26513 ft 422 kts 104°
2026-05-07 20:57 46.62120 5.49337 25931 ft 420 kts 104°
2026-05-07 20:57 46.61477 5.53466 25390 ft 416 kts 105°
2026-05-07 20:58 46.60836 5.57547 24843 ft 411 kts 104°
2026-05-07 20:58 46.60203 5.61574 24302 ft 406 kts 104°
2026-05-07 20:58 46.59576 5.65562 23765 ft 402 kts 104°
2026-05-07 20:58 46.58956 5.69501 23201 ft 397 kts 104°
2026-05-07 20:59 46.58349 5.73345 22721 ft 393 kts 104°
2026-05-07 20:59 46.57733 5.77193 22194 ft 391 kts 107°
2026-05-07 20:59 46.56730 5.80698 21685 ft 387 kts 124°
2026-05-07 20:59 46.54962 5.83566 21215 ft 379 kts 144°
2026-05-07 21:00 46.52823 5.85766 20694 ft 376 kts 148°
2026-05-07 21:00 46.50673 5.87878 20198 ft 373 kts 148°
2026-05-07 21:00 46.48538 5.90011 19692 ft 371 kts 148°
2026-05-07 21:00 46.46425 5.92137 19204 ft 368 kts 147°
2026-05-07 21:01 46.44330 5.94238 18722 ft 366 kts 147°
2026-05-07 21:01 46.42269 5.96304 18224 ft 364 kts 147°
2026-05-07 21:01 46.40203 5.98370 17774 ft 355 kts 147°
2026-05-07 21:01 46.38181 6.00390 17274 ft 349 kts 147°
2026-05-07 21:02 46.36158 6.02237 16797 ft 339 kts 158°
2026-05-07 21:02 46.33903 6.02850 16354 ft 326 kts 187°
2026-05-07 21:02 46.31806 6.01888 15980 ft 313 kts 214°
2026-05-07 21:02 46.30254 5.99777 15611 ft 303 kts 228°
2026-05-07 21:03 46.28815 5.97565 15160 ft 301 kts 226°
2026-05-07 21:03 46.27343 5.95429 14777 ft 299 kts 225°
2026-05-07 21:03 46.25875 5.93310 14382 ft 298 kts 225°
2026-05-07 21:03 46.24411 5.91186 13987 ft 298 kts 225°
2026-05-07 21:04 46.22949 5.89062 13554 ft 297 kts 225°
2026-05-07 21:04 46.21502 5.86958 13187 ft 293 kts 225°
2026-05-07 21:04 46.20073 5.84883 12786 ft 290 kts 225°
2026-05-07 21:04 46.18657 5.82827 12410 ft 287 kts 225°
2026-05-07 21:05 46.17254 5.80790 12030 ft 285 kts 225°
2026-05-07 21:05 46.15874 5.78789 11657 ft 283 kts 225°
2026-05-07 21:05 46.14492 5.76790 11261 ft 280 kts 225°
2026-05-07 21:05 46.13125 5.74810 10932 ft 276 kts 225°
2026-05-07 21:06 46.11778 5.72860 10533 ft 273 kts 225°
2026-05-07 21:06 46.10459 5.70955 10190 ft 269 kts 225°
2026-05-07 21:06 46.09131 5.69037 9945 ft 261 kts 225°
2026-05-07 21:06 46.07888 5.67254 9950 ft 245 kts 224°
2026-05-07 21:07 46.06648 5.65718 9922 ft 234 kts 208°
2026-05-07 21:07 46.05084 5.65278 10018 ft 233 kts 174°
2026-05-07 21:07 46.03535 5.66184 10070 ft 251 kts 143°
2026-05-07 21:07 46.02444 5.68269 9378 ft 278 kts 114°
2026-05-07 21:08 46.02193 5.71118 8459 ft 301 kts 87°
2026-05-07 21:08 46.02449 5.74177 7567 ft 314 kts 84°
2026-05-07 21:08 46.02575 5.77284 7119 ft 308 kts 92°
2026-05-07 21:08 46.02740 5.80321 6693 ft 304 kts 74°
2026-05-07 21:09 46.03793 5.82867 6341 ft 300 kts 43°
2026-05-07 21:09 46.05506 5.84477 6030 ft 292 kts 30°
2026-05-07 21:09 46.07098 5.86226 5686 ft 284 kts 47°
2026-05-07 21:09 46.08333 5.88321 5347 ft 265 kts 49°
2026-05-07 21:10 46.09612 5.90112 5023 ft 249 kts 43°
2026-05-07 21:10 46.10832 5.91776 4780 ft 239 kts 47°
2026-05-07 21:10 46.11933 5.93488 4507 ft 227 kts 48°
2026-05-07 21:10 46.13027 5.95084 4176 ft 220 kts 46°
2026-05-07 21:11 46.14074 5.96582 3907 ft 203 kts 47°
2026-05-07 21:11 46.14985 5.97928 3621 ft 183 kts 46°
2026-05-07 21:11 46.16605 6.00304 3170 ft 150 kts 45°
2026-05-07 21:12 46.17306 6.01335 2969 ft 138 kts 45°
2026-05-07 21:12 46.17778 6.02487 2794 ft 136 kts 79°
2026-05-07 21:12 46.17505 6.03791 2512 ft 149 kts 134°
2026-05-07 21:12 46.16521 6.04344 2099 ft 164 kts 186°
2026-05-07 21:13 46.15566 6.03594 2105 ft 159 kts 227°
2026-05-07 21:13 46.14787 6.02484 2275 ft 157 kts 222°
2026-05-07 21:13 46.13973 6.01410 2413 ft 161 kts 223°
2026-05-07 21:13 46.13126 6.00294 2587 ft 169 kts 223°
2026-05-07 21:14 46.12242 5.99123 2785 ft 177 kts 223°
2026-05-07 21:14 46.11321 5.97887 2984 ft 185 kts 226°
2026-05-07 21:14 46.10732 5.96230 3059 ft 192 kts 265°
2026-05-07 21:14 46.10996 5.94508 3091 ft 191 kts 304°
2026-05-07 21:15 46.12033 5.93376 3126 ft 190 kts 346°
2026-05-07 21:15 46.13314 5.93531 3152 ft 187 kts 28°
2026-05-07 21:15 46.14171 5.94881 3172 ft 186 kts 71°
2026-05-07 21:15 46.14148 5.96628 3209 ft 171 kts 113°
2026-05-07 21:16 46.13537 5.98023 2980 ft 163 kts 105°
2026-05-07 21:16 46.13682 5.99593 2484 ft 160 kts 53°
2026-05-07 21:16 46.14521 6.00477 2296 ft 147 kts 12°
2026-05-07 21:16 46.15473 6.00408 2756 ft 133 kts 355°
2026-05-07 21:17 46.16379 6.00531 3419 ft 134 kts 23°
2026-05-07 21:17 46.17208 6.01199 3993 ft 136 kts 44°
2026-05-07 21:17 46.17881 6.02215 3890 ft 147 kts 48°
2026-05-07 21:17 46.18574 6.03290 3315 ft 147 kts 46°
2026-05-07 21:18 46.19272 6.04356 2760 ft 144 kts 45°
2026-05-07 21:18 46.19961 6.05317 2395 ft 133 kts 43°
2026-05-07 21:18 46.20608 6.06202 2067 ft 127 kts 44°
2026-05-07 21:18 46.21220 6.07118 1888 ft 128 kts 45°
2026-05-07 21:19 46.21864 6.08052 1721 ft 134 kts 44°
2026-05-07 21:19 46.22511 6.08991 1530 ft 132 kts 45°
2026-05-07 21:19 46.23137 6.09908 1409 ft 121 kts 45°
2026-05-07 21:19 46.23652 6.10669 1381 ft 91 kts 44°
2026-05-07 21:20 46.24005 6.11188 1377 ft 55 kts 45°
2026-05-07 21:20 46.24213 6.11495 1373 ft 35 kts 52°
2026-05-07 21:20 46.24322 6.11778 1367 ft 31 kts 75°
2026-05-07 21:20 46.24338 6.11901 1364 ft 7 kts 104°
2026-05-07 21:21 46.24317 6.11937 1363 ft 2 kts 159°
2026-05-07 21:21 46.24293 6.11935 1361 ft 6 kts 180°
2026-05-07 21:21 46.24274 6.11914 1360 ft 5 kts 224°
2026-05-07 21:21 46.24231 6.11852 1361 ft 11 kts 225°
2026-05-07 21:22 46.24177 6.11773 1363 ft 10 kts 225°
2026-05-07 21:22 46.24128 6.11703 1365 ft 10 kts 225°
2026-05-07 21:22 46.24082 6.11637 1367 ft 9 kts 225°
2026-05-07 21:22 46.24043 6.11576 1369 ft 10 kts 226°
2026-05-07 21:23 46.23982 6.11484 1371 ft 15 kts 225°
2026-05-07 21:23 46.23906 6.11377 1374 ft 15 kts 224°
2026-05-07 21:23 46.23835 6.11273 1376 ft 14 kts 226°
2026-05-07 21:23 46.23767 6.11168 1378 ft 14 kts 226°
2026-05-07 21:24 46.23711 6.11090 1382 ft 8 kts 224°
2026-05-07 21:24 46.23688 6.11070 1384 ft 0 kts 199°
2026-05-07 21:24 46.23685 6.11070 1387 ft 0 kts 189°
2026-05-07 21:24 46.23676 6.11070 1388 ft 2 kts 180°
2026-05-07 21:25 46.23664 6.11080 1389 ft 3 kts 148°
2026-05-07 21:25 46.23637 6.11113 1390 ft 6 kts 140°
2026-05-07 21:25 46.23609 6.11151 1391 ft 5 kts 139°
2026-05-07 21:25 46.23589 6.11162 1389 ft 3 kts 162°
2026-05-07 21:26 46.23574 6.11174 1390 ft 4 kts 147°
2026-05-07 21:26 46.23552 6.11204 1391 ft 5 kts 135°
2026-05-07 21:26 46.23527 6.11240 1389 ft 5 kts 136°
2026-05-07 21:26 46.23515 6.11256 1399 ft 0 kts 136°
2026-05-07 21:27 46.23513 6.11259 1397 ft 1 kts 135°